{"data":{"norad_id":68346,"epoch":"2026-05-25T04:00:03.998880Z","epoch_age_seconds":57260,"freshness":"FRESH","line1":"1 68346U 26059AB  26145.16671295 -.00011675  00000+0 -33497-3 0  9994","line2":"2 68346  53.1588 349.1516 0001047  58.6357 138.8170 15.34397721  5920","mean_motion":15.34397721,"eccentricity":0.0001047,"inclination_deg":53.1588,"raan_deg":349.1516,"arg_perigee_deg":58.6357,"mean_anomaly_deg":138.817,"bstar":-0.00033497,"rev_number":592,"period_min":93.847897470906,"perigee_km":461.99377720141,"apogee_km":463.42625056612,"semimajor_km":6840.8470138838,"source":"CELESTRAK","updated_at":"2026-05-25T13:38:21.926923Z"}}